Weather History for Marianna, FL

Change the Weather History Date:

Sunday, December 9, 2012

  Actual Average Record
Temperature  
Mean Temperature 67 °F 54 °F  
Max Temperature 75 °F 65 °F 81 °F (2007)
Min Temperature 58 °F 43 °F 23 °F (2006)
Degree Days  
Heating Degree Days 0    
Month to date heating degree days 18  
Since 1 July heating degree days 307  
Cooling Degree Days 2    
Month to date cooling degree days 2  
Year to date cooling degree days 2745  
Growing Degree Days 16 (Base 50)    
Moisture  
Dew Point 61 °F    
Average Humidity 75    
Maximum Humidity 100    
Minimum Humidity 50    
Precipitation  
Precipitation 0.01 in 0.12 in 0.17 in (2004)
Month to date precipitation 0.01 1.25  
Year to date precipitation 55.88 50.92  
Sea Level Pressure  
Sea Level Pressure 30.04 in    
Wind  
Wind Speed 3 mph (South)    
Max Wind Speed 12 mph    
Max Gust Speed 18 mph    
Visibility 6 miles    
Events Fog    
T = Trace of Precipitation, MM = Missing Value Source: NWS Daily Summary

Daily Weather History Graph

Daily Weather History Graph

Search for Another Location

Airport:

Trip Planner

Search our weather history database for the weather conditions in past years. The results will help you decide how hot, cold, wet, or windy it might be!

Date:

Astronomy

Dec. 09, 2012 Rise Set
Actual Time 6:27 AM CST 4:39 PM CST
Civil Twilight 6:00 AM CST 5:05 PM CST
Nautical Twilight 5:30 AM CST 5:35 PM CST
Astronomical Twilight 5:01 AM CST 6:05 PM CST
Moon 2:11 AM CST (12/9) 1:35 PM CST (12/9)
Length of Visible Light 11h 05m
Length of Day
10h 12m
Waning Crescent, 18% of the Moon is Illuminated
Dec 9
Waning Crescent
Dec 13
New
Dec 19
First Quarter
Dec 28
Full
Jan 4
Last Quarter

Hourly Weather History & Observations

Time (CST) Temp. Dew Point Humidity Pressure Visibility Wind Dir Wind Speed Gust Speed Precip Events Conditions
12:53 AM 64.0 °F 63.0 °F 96% 30.03 in 7.0 mi SSE 3.5 mph - N/A   Overcast
1:53 AM 64.0 °F 63.0 °F 96% 30.03 in 8.0 mi Calm Calm - N/A   Overcast
2:53 AM 64.0 °F 63.0 °F 96% 30.04 in 4.0 mi ESE 3.5 mph - N/A   Overcast
3:24 AM 64.4 °F 62.6 °F 94% 30.04 in 2.5 mi East 3.5 mph - N/A   Overcast
3:53 AM 63.0 °F 63.0 °F 100% 30.04 in 2.0 mi Calm Calm - N/A   Overcast
4:11 AM 62.6 °F 62.6 °F 100% 30.04 in 4.0 mi Calm Calm - N/A   Overcast
4:33 AM 62.6 °F 62.6 °F 100% 30.04 in 1.8 mi Calm Calm - N/A   Overcast
4:43 AM 62.6 °F 62.6 °F 100% 30.04 in 2.0 mi Calm Calm - N/A   Overcast
4:53 AM 63.0 °F 63.0 °F 100% 30.04 in 2.0 mi ESE 3.5 mph - N/A   Overcast
5:24 AM 62.6 °F 62.6 °F 100% 30.06 in 3.0 mi SE 3.5 mph - N/A   Overcast
5:53 AM 63.0 °F 63.0 °F 100% 30.06 in 6.0 mi Calm Calm - 0.01 in   Overcast
6:53 AM 63.0 °F 63.0 °F 100% 30.08 in 3.0 mi SE 3.5 mph - N/A   Overcast
7:24 AM 62.6 °F 62.6 °F 100% 30.09 in 2.5 mi Calm Calm - N/A   Overcast
7:32 AM 64.4 °F 62.6 °F 94% 30.09 in 3.0 mi Calm Calm - N/A   Overcast
7:40 AM 64.4 °F 62.6 °F 94% 30.09 in 2.5 mi Calm Calm - N/A   Overcast
7:48 AM 64.4 °F 62.6 °F 94% 30.09 in 4.0 mi Calm Calm - N/A   Overcast
7:53 AM 64.0 °F 63.0 °F 96% 30.09 in 4.0 mi SE 3.5 mph - N/A   Overcast
8:53 AM 64.9 °F 63.0 °F 93% 30.10 in 10.0 mi Calm Calm - N/A   Overcast
9:53 AM 66.9 °F 63.0 °F 87% 30.11 in 10.0 mi South 6.9 mph - N/A   Overcast
10:07 AM 66.2 °F 62.6 °F 88% 30.10 in 10.0 mi South 4.6 mph - N/A   Overcast
10:53 AM 69.1 °F 63.0 °F 81% 30.09 in 10.0 mi Variable 3.5 mph - N/A   Overcast
11:04 AM 69.8 °F 62.6 °F 78% 30.08 in 10.0 mi Calm Calm - N/A   Mostly Cloudy
11:12 AM 69.8 °F 62.6 °F 78% 30.08 in 10.0 mi Calm Calm - N/A   Overcast
11:53 AM 72.0 °F 62.1 °F 71% 30.06 in 10.0 mi SSW 5.8 mph - N/A   Mostly Cloudy
12:53 PM 75.0 °F 57.9 °F 55% 30.03 in 10.0 mi SSW 9.2 mph - N/A   Partly Cloudy
1:53 PM 73.9 °F 57.9 °F 57% 30.02 in 10.0 mi SW 6.9 mph - N/A   Partly Cloudy
2:53 PM 75.0 °F 55.9 °F 51% 30.01 in 10.0 mi SW 5.8 mph - N/A   Clear
3:53 PM 73.0 °F 55.9 °F 55% 30.01 in 10.0 mi West 3.5 mph - N/A   Clear
4:53 PM 66.9 °F 57.9 °F 73% 30.01 in 10.0 mi Calm Calm - N/A   Clear
5:53 PM 63.0 °F 57.9 °F 84% 30.01 in 10.0 mi Calm Calm - N/A   Clear
6:53 PM 61.0 °F 57.0 °F 87% 30.01 in 10.0 mi Calm Calm - N/A   Clear
7:53 PM 59.0 °F 57.0 °F 93% 30.01 in 10.0 mi Calm Calm - N/A   Clear
8:53 PM 57.9 °F 55.9 °F 93% 30.01 in 10.0 mi Calm Calm - N/A   Clear
9:53 PM 62.1 °F 57.9 °F 86% 30.01 in 10.0 mi South 3.5 mph - N/A   Clear
10:53 PM 59.0 °F 57.0 °F 93% 29.99 in 10.0 mi Calm Calm - N/A   Clear
11:42 PM 60.8 °F 59.0 °F 94% 29.98 in 3.0 mi SSE 5.8 mph - N/A   Scattered Clouds
11:47 PM 60.8 °F 59.0 °F 94% 29.98 in 0.8 mi South 5.8 mph - N/A   Mist
11:53 PM 60.1 °F 60.1 °F 100% 29.97 in 0.5 mi South 6.9 mph - N/A Fog Fog